Wind_Speed
19 19 18 18 17 17 16 15 14 14 14 14 13 12 11 12 12 14 17 18 17 15 14 14 16 18 17 16 14 12 13 8 5 14 12 21 20 17 10 11 10 7 6 5 2
18 19 19 19 18 17 17 17 16 16 15 15 15 15 14 12 12 14 17 18 20 17 16 15 15 16 19 21 20 15 15 13 15 8 6 6 14 11 7 15 13 5 4 4 2
18 18 18 17 17 17 17 17 17 17 17 16 17 16 16 15 11 16 16 17 19 20 17 17 15 14 15 17 18 14 12 11 12 12 5 3 6 10 8 4 3 3 5 3 1
19 19 19 19 18 17 16 16 16 16 15 16 16 18 18 17 14 16 15 18 18 19 22 18 18 16 15 14 17 15 12 11 13 6 8 14 9 7 15 14 6 6 6 3 1
21 22 22 22 21 21 20 19 18 18 16 15 15 15 18 20 15 19 19 17 17 20 20 23 20 20 18 18 17 15 12 14 12 10 10 9 6 15 14 16 9 6 6 3 3
25 24 24 24 24 24 24 23 22 22 21 20 19 17 15 17 16 22 21 21 19 18 20 20 23 22 22 21 17 17 16 12 9 10 17 5 7 4 5 11 8 6 5 7 4
29 27 26 26 26 26 26 25 24 24 24 23 22 22 21 15 20 21 20 21 21 20 19 22 23 25 25 23 23 17 14 17 14 14 5 8 9 4 15 14 7 4 6 8 5
31 30 29 28 27 27 27 29 28 28 28 27 27 26 23 23 21 20 18 19 21 22 23 22 24 24 26 28 24 21 15 12 16 16 9 9 6 11 16 10 6 6 5 8 7
32 31 29 27 27 27 27 28 27 27 26 26 26 27 27 26 24 23 23 21 20 21 23 24 23 23 25 24 26 21 17 14 15 16 17 18 22 15 21 6 17 5 4 7 9
30 31 30 30 28 27 27 27 27 27 27 28 27 28 27 26 26 26 26 25 23 22 22 22 23 23 23 24 18 21 20 18 15 17 20 20 24 18 20 18 10 9 9 8 9
27 29 30 29 30 29 27 26 27 25 27 28 28 28 28 28 26 28 28 27 27 28 24 22 22 21 23 22 24 23 27 27 23 6 17 19 24 21 24 19 15 20 13 15 11
22 23 25 28 30 30 30 29 28 28 28 28 28 28 28 28 28 26 27 31 31 28 27 27 21 20 22 25 25 26 25 27 27 15 11 16 23 19 17 20 24 27 28 19 12
25 24 25 25 27 28 30 32 30 30 27 27 29 29 30 29 29 28 29 29 31 32 31 30 27 28 26 26 28 28 26 25 28 26 26 24 27 26 24 22 25 27 18 19 13
30 30 27 26 26 27 28 29 29 31 29 28 27 28 28 29 31 31 32 32 32 32 33 33 32 33 31 28 28 29 29 27 28 35 34 29 28 35 30 22 19 30 24 22 12
25 27 28 26 23 25 25 26 24 27 23 27 22 24 25 29 29 29 28 31 32 35 36 35 37 36 34 34 33 29 32 32 34 34 36 37 37 31 35 31 27 24 14 28 19
24 23 23 21 18 16 18 17 15 12 10 11 16 15 18 22 27 25 24 28 28 31 35 34 39 41 40 39 38 37 35 35 38 40 40 36 41 37 32 27 24 21 17 17 17
18 19 16 15 12 11 11 11 11 8 10 17 23 13 13 16 19 15 18 18 20 24 29 35 35 36 40 46 43 42 41 39 39 41 37 34 40 39 35 23 15 22 21 12 12
15 16 14 8 9 9 11 11 17 17 21 19 18 13 16 19 19 18 17 16 15 23 26 28 32 27 21 32 42 46 44 43 42 39 35 31 40 36 35 33 22 23 22 23 20
15 13 11 3 6 9 14 15 23 17 16 17 10 14 17 21 22 22 22 21 25 27 28 28 29 34 36 40 38 40 44 41 41 38 36 33 29 27 24 30 32 32 28 27 27
11 9 6 3 6 9 11 16 14 15 19 20 19 18 13 12 23 23 22 26 28 30 26 27 26 24 32 39 41 43 39 33 35 39 42 35 28 15 9 17 39 38 26 26 28
8 8 3 3 5 9 14 17 14 12 20 22 22 21 26 27 24 22 25 25 24 28 28 28 29 26 28 31 31 29 28 33 30 32 37 35 28 13 19 9 24 26 28 42 41
11 2 8 6 0 3 4 5 7 6 14 11 17 19 21 24 24 25 27 27 24 26 30 30 32 32 32 30 29 37 38 43 39 37 34 33 28 24 18 22 29 26 24 26 37
11 11 8 7 4 3 4 5 7 7 10 12 15 16 19 21 24 27 30 31 29 28 31 32 34 35 33 35 42 42 43 42 43 45 42 39 41 31 22 13 29 27 26 30 31
12 11 11 11 11 10 10 13 12 15 15 18 20 21 22 24 28 31 30 33 31 30 31 33 35 37 38 38 49 49 48 43 51 44 41 47 46 38 29 22 31 40 41 36 35
16 15 16 13 12 13 15 16 17 18 17 18 20 20 22 22 23 22 22 19 18 20 23 23 28 36 40 44 48 53 54 55 50 45 48 51 51 49 40 36 33 38 37 30 41
18 17 16 16 16 15 14 14 16 16 15 15 15 15 17 18 19 16 16 16 14 15 19 21 23 27 36 40 44 56 59 63 61 52 52 58 47 67 52 46 45 48 49 47 34
17 16 16 17 15 14 13 14 15 15 14 13 12 11 13 16 18 17 14 11 11 16 21 27 30 31 33 35 37 56 54 61 64 65 68 55 54 76 60 57 54 56 50 56 47
Wind_Direction
281 278 277 277 276 274 272 268 265 260 259 258 255 252 243 231 227 226 220 210 212 213 217 216 212 218 223 233 232 232 239 263 212 324 75 175 144 168 177 156 158 154 164 201 243
280 277 274 273 273 271 269 267 264 259 252 251 249 249 251 241 231 231 228 220 219 216 217 217 217 222 224 228 232 224 242 240 255 277 237 226 137 156 144 204 140 144 192 187 232
277 275 272 268 267 266 265 264 262 258 256 250 247 249 245 244 236 235 232 229 224 218 217 221 225 228 236 240 239 238 247 255 250 253 227 173 201 171 178 149 182 138 226 186 248
278 274 272 269 266 264 261 260 259 258 256 254 247 244 247 241 232 238 232 230 228 225 220 219 222 225 229 235 233 223 227 232 251 329 189 208 197 226 180 150 181 144 230 219 197
279 275 271 269 267 265 261 258 258 256 252 252 254 244 239 242 234 237 235 233 228 227 225 223 224 224 231 233 235 220 224 237 243 243 262 295 248 188 167 167 158 164 201 224 194
280 276 274 271 266 262 262 261 259 258 255 253 248 250 245 235 227 240 236 234 230 228 227 223 222 223 228 235 240 226 210 217 186 165 184 251 193 281 233 202 169 139 199 233 207
279 276 275 272 269 265 260 258 258 259 259 255 251 246 246 242 230 239 234 233 232 228 227 226 223 226 225 232 236 238 230 243 217 196 252 281 270 265 269 310 212 140 220 237 214
279 275 271 268 268 265 263 262 261 260 258 256 255 250 243 240 235 231 234 232 230 230 229 226 227 224 230 230 233 237 226 221 238 224 258 251 310 248 269 249 57 179 213 244 226
278 276 273 268 264 263 262 262 261 259 258 254 252 251 246 241 233 231 230 233 231 231 230 230 227 229 228 231 231 236 234 219 228 235 237 253 261 260 252 261 309 217 207 264 239
279 276 275 273 268 265 260 259 258 257 255 253 251 250 247 245 239 234 232 229 231 230 231 230 230 227 232 233 232 229 226 221 219 243 241 239 257 265 282 289 263 346 262 240 240
280 276 272 270 269 267 264 258 255 253 251 251 251 249 245 245 243 238 234 228 225 230 228 229 230 228 226 228 226 227 222 216 206 225 251 260 261 262 261 263 270 244 238 242 225
290 279 270 268 266 264 264 263 261 255 253 251 247 246 244 242 240 237 238 233 229 226 229 231 227 226 227 226 226 226 227 226 214 192 252 267 275 267 271 259 260 259 249 229 207
289 284 275 264 260 258 259 261 261 260 256 249 248 244 242 241 239 236 235 234 233 230 226 228 224 226 222 221 227 229 226 226 222 194 190 227 252 261 256 260 265 267 191 220 197
291 290 283 268 260 257 254 253 255 255 256 252 247 245 240 236 234 232 234 236 233 231 230 226 228 229 229 225 226 227 228 216 225 220 202 199 233 248 252 254 273 281 218 219 199
300 288 281 278 264 256 254 249 248 250 251 247 241 245 240 238 236 231 230 231 232 232 230 227 226 233 229 231 229 230 225 221 224 227 231 210 220 230 247 248 259 246 255 210 179
313 305 285 269 264 252 236 232 224 229 236 253 246 235 241 231 234 228 229 233 233 234 233 232 233 227 231 232 233 231 230 228 227 233 225 228 231 232 234 245 253 267 284 253 193
329 329 309 262 250 225 210 198 187 170 235 238 245 233 222 224 228 219 223 227 229 228 227 227 225 230 236 233 230 233 233 234 232 236 240 235 235 247 247 243 233 244 249 229 237
343 343 332 281 241 199 191 182 196 184 193 230 242 237 237 245 237 244 227 244 252 237 229 233 232 223 223 237 243 234 234 235 236 238 243 236 242 247 256 260 236 247 241 249 252
334 348 2 314 207 193 188 187 193 196 225 230 277 256 237 248 248 252 251 251 248 244 242 240 231 225 213 218 221 231 237 238 241 240 240 232 236 245 243 241 253 246 248 238 241
331 335 16 82 173 190 207 223 221 232 234 245 246 238 183 208 242 239 244 241 250 248 250 250 239 232 239 231 224 225 227 228 234 235 236 234 222 219 258 214 242 256 243 237 228
359 13 21 101 164 205 227 238 250 233 247 248 249 247 216 230 251 251 239 254 255 258 254 252 247 225 225 231 227 219 211 212 223 231 243 239 224 151 267 210 268 280 263 257 248
40 3 63 66 140 227 245 263 258 235 246 240 240 239 232 242 252 253 258 264 261 256 256 251 247 243 231 226 222 207 206 202 213 214 214 224 201 178 206 220 207 250 275 278 274
21 9 24 27 334 2 310 281 275 258 252 248 247 247 243 245 250 252 258 260 261 258 260 256 253 243 234 223 229 223 211 203 210 216 209 210 193 194 195 214 205 208 253 250 249
360 350 351 337 324 312 296 280 258 270 264 262 260 254 257 255 253 258 262 261 261 260 258 256 256 251 238 227 224 223 222 209 201 212 212 206 194 204 212 223 208 206 212 221 241
347 341 336 325 311 309 306 302 294 287 279 272 267 266 265 268 263 259 262 260 269 275 276 276 270 258 249 239 229 225 221 232 227 203 204 199 200 206 206 218 194 204 209 209 214
339 338 333 325 327 324 314 312 311 309 311 309 305 295 284 272 261 249 257 255 256 268 282 284 291 295 277 255 237 227 224 221 229 226 209 193 205 206 204 205 199 202 208 216 216
356 355 343 337 334 331 327 327 334 342 342 332 316 294 265 247 244 245 257 274 292 291 289 291 292 296 301 282 248 228 223 227 223 223 232 213 220 207 206 209 206 204 203 212 210
Height
5857 5856 5856 5856 5856 5857 5857 5857 5858 5859 5859 5860 5861 5862 5863 5865 5866 5868 5869 5873 5874 5877 5878 5880 5882 5883 5884 5884 5885 5888 5887 5886 5886 5887 5875 5880 5878 5891 5897 5898 5900 5904 5904 5904 5906
5852 5851 5851 5851 5851 5852 5852 5852 5853 5854 5856 5856 5858 5858 5860 5862 5864 5865 5868 5869 5871 5874 5876 5877 5879 5880 5881 5880 5882 5886 5886 5889 5888 5887 5884 5885 5885 5890 5896 5894 5897 5902 5904 5905 5906
5846 5846 5846 5846 5846 5847 5847 5847 5848 5848 5850 5852 5853 5854 5856 5858 5862 5860 5864 5866 5868 5871 5873 5875 5877 5879 5879 5879 5881 5885 5887 5887 5886 5886 5892 5889 5892 5894 5895 5895 5899 5903 5906 5905 5906
5842 5841 5841 5841 5841 5842 5842 5842 5842 5843 5844 5845 5847 5849 5851 5854 5858 5858 5860 5862 5865 5867 5870 5872 5875 5876 5877 5877 5878 5882 5885 5886 5886 5889 5888 5890 5891 5891 5894 5896 5901 5904 5905 5906 5905
5838 5837 5836 5835 5835 5836 5836 5837 5838 5838 5840 5841 5842 5844 5847 5850 5854 5853 5856 5858 5861 5863 5866 5869 5872 5873 5875 5875 5876 5880 5882 5883 5887 5891 5891 5885 5892 5888 5891 5898 5897 5904 5904 5906 5908
5832 5831 5830 5830 5829 5830 5830 5831 5832 5833 5835 5836 5838 5840 5842 5846 5848 5848 5851 5854 5857 5859 5862 5865 5868 5870 5871 5872 5875 5877 5881 5882 5888 5890 5889 5892 5892 5893 5896 5895 5897 5901 5904 5905 5907
5825 5824 5824 5823 5823 5823 5824 5825 5826 5827 5829 5830 5832 5834 5837 5841 5842 5844 5847 5849 5852 5855 5858 5860 5863 5867 5868 5869 5871 5875 5880 5882 5885 5891 5887 5888 5892 5894 5896 5896 5896 5899 5907 5906 5906
5816 5816 5816 5816 5816 5816 5817 5818 5819 5821 5822 5824 5826 5829 5832 5834 5837 5840 5842 5845 5847 5850 5853 5856 5858 5861 5864 5866 5868 5872 5877 5882 5885 5887 5888 5886 5884 5890 5893 5895 5893 5900 5903 5905 5905
5808 5808 5807 5807 5808 5809 5809 5810 5812 5813 5815 5817 5819 5822 5825 5827 5831 5834 5837 5840 5843 5845 5847 5851 5854 5858 5860 5863 5866 5871 5875 5880 5883 5886 5888 5887 5887 5892 5889 5890 5896 5898 5896 5903 5907
5799 5800 5799 5799 5800 5801 5802 5803 5804 5807 5808 5810 5812 5816 5819 5822 5824 5828 5831 5835 5837 5839 5842 5846 5850 5853 5857 5860 5866 5867 5871 5875 5881 5884 5884 5886 5884 5890 5889 5890 5893 5882 5900 5901 5904
5791 5792 5791 5792 5792 5792 5794 5796 5799 5801 5801 5803 5805 5808 5812 5814 5817 5821 5824 5828 5831 5834 5837 5841 5845 5850 5852 5855 5858 5862 5863 5867 5872 5880 5881 5882 5882 5886 5888 5893 5892 5896 5901 5902 5902
5784 5783 5782 5783 5784 5784 5785 5787 5788 5792 5794 5795 5798 5801 5803 5807 5810 5814 5818 5822 5825 5829 5832 5836 5841 5844 5847 5850 5853 5856 5861 5864 5868 5874 5881 5881 5881 5884 5886 5889 5892 5894 5899 5903 5899
5776 5775 5774 5774 5774 5775 5777 5779 5779 5781 5785 5789 5790 5793 5797 5799 5802 5807 5810 5813 5817 5822 5825 5829 5836 5836 5839 5844 5848 5851 5856 5862 5866 5867 5871 5874 5875 5880 5884 5889 5891 5894 5893 5900 5897
5768 5765 5764 5765 5768 5767 5768 5770 5772 5773 5776 5781 5783 5786 5789 5791 5795 5798 5802 5806 5810 5814 5818 5823 5827 5830 5834 5838 5842 5846 5851 5856 5860 5861 5865 5871 5871 5875 5879 5884 5887 5886 5893 5895 5897
5761 5758 5756 5755 5757 5759 5761 5762 5764 5766 5769 5772 5776 5777 5781 5785 5788 5791 5794 5797 5801 5805 5810 5816 5819 5822 5827 5832 5835 5841 5843 5848 5851 5856 5860 5862 5864 5869 5874 5879 5884 5883 5890 5888 5895
5754 5751 5749 5748 5749 5752 5753 5756 5760 5764 5764 5767 5768 5773 5775 5777 5780 5784 5787 5789 5793 5796 5800 5807 5810 5815 5819 5823 5828 5832 5836 5840 5844 5846 5849 5860 5859 5862 5868 5877 5882 5884 5883 5889 5892
5749 5745 5742 5742 5744 5747 5749 5753 5757 5758 5762 5764 5762 5768 5770 5772 5774 5778 5781 5784 5786 5788 5790 5795 5802 5808 5812 5815 5820 5824 5828 5833 5837 5838 5846 5857 5855 5859 5865 5871 5877 5880 5883 5879 5881
5746 5743 5739 5739 5741 5744 5747 5750 5750 5753 5752 5756 5759 5766 5768 5768 5771 5772 5776 5778 5778 5779 5785 5788 5796 5799 5800 5808 5815 5816 5821 5824 5830 5835 5843 5850 5847 5855 5862 5865 5868 5871 5875 5875 5878
5745 5742 5739 5738 5740 5743 5746 5746 5746 5750 5753 5756 5759 5760 5762 5763 5766 5767 5770 5772 5769 5775 5780 5783 5789 5787 5792 5793 5800 5809 5811 5823 5824 5829 5832 5838 5844 5851 5859 5862 5861 5863 5869 5871 5877
5743 5741 5740 5739 5740 5742 5744 5743 5746 5750 5751 5752 5754 5756 5757 5756 5757 5760 5760 5761 5765 5766 5773 5776 5783 5785 5788 5790 5794 5798 5810 5813 5815 5821 5824 5831 5839 5845 5854 5857 5855 5857 5864 5866 5869
5744 5742 5740 5739 5739 5740 5740 5741 5744 5746 5745 5747 5748 5750 5751 5750 5751 5754 5751 5757 5760 5763 5766 5769 5773 5782 5783 5786 5790 5791 5796 5805 5810 5815 5819 5828 5836 5847 5843 5851 5852 5852 5859 5858 5860
5745 5744 5742 5740 5741 5740 5740 5740 5740 5741 5741 5742 5741 5743 5746 5746 5746 5748 5748 5751 5755 5756 5757 5762 5765 5769 5776 5781 5785 5781 5786 5791 5796 5806 5809 5818 5836 5831 5836 5836 5835 5846 5852 5853 5843
5748 5747 5744 5742 5742 5740 5739 5738 5737 5737 5737 5737 5737 5739 5739 5741 5742 5741 5741 5743 5744 5748 5749 5751 5754 5757 5765 5773 5770 5774 5777 5778 5789 5792 5799 5809 5825 5827 5828 5830 5831 5837 5845 5845 5848
5750 5748 5746 5742 5740 5738 5736 5735 5735 5733 5733 5732 5731 5732 5732 5732 5733 5732 5734 5734 5735 5738 5739 5741 5743 5746 5753 5756 5755 5762 5770 5772 5773 5780 5794 5797 5816 5816 5818 5821 5821 5821 5822 5837 5846
5749 5745 5742 5740 5738 5736 5733 5731 5729 5727 5727 5726 5725 5725 5725 5725 5724 5725 5726 5726 5727 5728 5728 5731 5732 5734 5737 5740 5742 5753 5761 5765 5766 5768 5776 5789 5791 5796 5801 5808 5813 5813 5814 5817 5817
5747 5744 5741 5737 5734 5732 5730 5728 5725 5723 5721 5720 5719 5718 5718 5718 5718 5720 5720 5721 5721 5722 5721 5723 5722 5722 5723 5723 5729 5734 5745 5751 5759 5766 5770 5775 5776 5773 5784 5793 5803 5806 5806 5809 5814
5746 5742 5739 5735 5732 5730 5727 5724 5722 5719 5717 5715 5714 5713 5713 5714 5714 5714 5714 5714 5714 5714 5713 5712 5711 5711 5710 5706 5710 5721 5736 5741 5747 5756 5757 5762 5752 5759 5768 5776 5786 5792 5799 5808 5810